Wind_Speed
57 57 57 56 55 56 57 59 61 63 64 64 65 66 66 66 66 67 68 70 71 72 73 74 75 77 78 81 83 85 87 88 89 88 86 83 80 78 76 74 71 69 66 62 58 53 50 48 49 49 49 52 54 55 56 55 54 52 51 51 53 55 58 62 67 71 75 79 83 85 86 87 89 90
57 57 56 55 55 56 59 61 62 64 65 66 66 67 67 67 67 68 70 71 72 73 74 75 77 79 81 83 86 88 90 91 91 90 87 84 80 77 76 74 72 69 66 63 58 54 50 48 47 46 47 49 52 54 54 53 53 52 50 49 50 52 55 59 64 69 73 77 82 85 87 88 90 91
57 56 56 56 57 58 60 62 64 65 66 67 67 68 68 67 68 70 71 72 73 73 75 77 79 82 84 86 89 91 92 93 93 91 86 83 80 77 75 74 72 69 66 62 58 54 51 48 45 44 43 44 48 51 52 51 50 49 49 48 48 50 52 56 61 66 71 76 80 85 88 89 90 92
56 57 58 58 59 60 62 63 65 66 67 68 68 69 68 68 69 71 72 74 74 74 75 78 81 83 86 89 91 93 94 94 93 90 86 82 79 76 74 73 71 68 65 61 57 54 52 49 44 42 41 40 43 46 48 49 48 46 47 47 48 49 51 53 58 64 69 74 79 83 88 90 91 94
57 58 59 60 61 62 63 65 66 67 68 69 70 70 69 70 71 72 73 74 75 76 78 80 82 85 88 91 93 94 94 93 91 88 84 80 78 76 73 71 70 67 64 61 56 53 52 49 45 42 40 38 39 40 42 45 47 46 44 45 47 48 49 51 55 60 66 72 77 81 87 91 92 94
58 59 60 61 62 64 65 66 67 68 69 70 71 70 70 71 72 74 74 75 76 78 81 83 85 88 90 92 94 94 94 91 87 84 81 79 77 75 73 70 68 66 64 60 56 54 53 49 44 43 41 37 36 36 37 39 43 46 44 42 44 47 48 50 52 57 62 69 75 80 84 90 93 95
60 60 61 62 64 65 66 67 68 69 70 71 71 70 71 72 74 75 75 75 77 80 83 85 87 89 91 93 94 94 92 88 83 81 79 77 75 74 72 69 67 66 63 61 57 55 54 49 42 42 41 38 35 34 34 35 38 43 44 42 41 44 48 49 50 54 59 65 72 78 82 88 93 95
61 62 63 64 65 66 67 68 69 70 71 71 71 70 71 73 75 75 76 76 78 81 84 87 89 90 92 94 94 92 89 85 81 78 76 75 74 73 72 69 67 66 65 62 58 55 55 49 41 41 42 40 37 35 34 34 34 38 42 43 41 42 45 49 49 51 56 61 68 75 80 85 91 95
62 63 64 65 66 67 68 69 70 71 71 71 70 71 72 74 75 76 76 78 80 82 85 87 90 92 93 94 93 90 85 82 78 76 75 74 73 71 71 70 68 67 66 63 58 55 55 50 43 41 42 42 40 38 35 34 33 34 37 41 42 42 42 46 49 50 53 59 64 72 78 83 88 94
63 64 65 66 67 68 69 70 71 71 70 70 70 71 73 75 76 77 78 79 81 84 86 89 91 93 94 93 91 87 83 79 75 72 72 73 72 71 70 69 67 67 66 64 59 55 54 52 45 41 41 41 41 40 38 34 33 33 34 37 41 43 42 43 48 50 52 56 62 68 75 81 85 91
64 64 66 67 68 69 70 70 70 70 70 70 71 72 74 75 76 77 79 81 83 85 88 90 93 94 94 91 87 84 80 77 74 71 70 70 70 69 69 67 65 65 65 64 61 56 54 51 45 39 39 40 40 40 40 37 33 32 32 35 38 42 43 42 45 49 51 54 59 64 72 79 83 88
64 65 66 67 68 69 70 70 70 70 70 71 72 73 75 75 77 79 81 83 85 87 89 92 94 94 92 88 84 81 78 75 73 71 69 68 67 66 67 66 64 62 62 62 60 56 53 50 44 39 38 38 39 39 40 39 37 33 32 33 36 40 42 42 42 47 51 52 56 62 68 76 81 85
65 66 67 68 68 69 69 69 69 70 71 72 73 74 75 76 78 80 82 84 86 89 91 93 94 93 89 85 81 79 76 73 71 69 67 66 65 64 65 66 65 62 59 59 58 54 52 50 45 41 39 39 38 38 39 39 38 37 34 33 35 38 41 42 41 44 49 52 54 59 65 72 78 82
65 66 67 68 68 69 69 69 70 70 72 73 74 75 76 77 79 81 83 85 88 90 93 94 93 90 86 83 79 76 74 71 70 67 65 64 63 62 62 63 64 61 57 56 56 54 52 52 47 42 40 40 40 39 39 39 38 37 35 33 34 36 38 41 40 40 46 50 53 56 61 68 75 80
65 66 67 68 68 68 69 69 70 71 73 74 75 76 77 78 80 81 83 86 88 91 93 93 90 87 83 81 77 74 71 70 68 65 63 62 62 60 58 58 58 57 55 54 54 54 54 53 50 44 40 40 41 40 40 40 38 36 35 33 32 33 36 38 39 38 41 48 51 54 58 64 71 77
66 67 68 68 68 69 69 70 71 72 73 74 75 77 78 80 81 82 84 87 89 92 92 91 87 84 81 78 75 71 69 67 64 62 62 61 60 58 56 54 53 53 52 52 53 53 53 53 51 46 42 41 42 41 41 40 38 36 35 33 31 32 33 35 37 35 37 43 48 51 54 60 67 74
66 67 67 68 68 69 70 70 71 72 73 75 76 77 79 80 82 84 85 88 90 91 90 87 84 81 78 75 72 68 66 63 61 60 59 59 57 56 54 53 52 51 50 50 51 51 51 52 51 47 43 42 43 44 43 40 37 35 34 32 31 31 31 30 32 32 33 39 45 48 51 56 63 71
66 67 67 68 69 69 70 70 71 73 74 75 76 77 79 81 83 85 87 89 91 89 87 84 82 78 75 71 68 65 63 59 57 55 55 54 54 55 55 55 53 52 51 50 49 49 49 50 50 48 43 41 43 44 44 41 36 32 31 31 30 29 27 26 28 29 30 35 42 45 48 52 58 67
66 67 67 68 69 69 70 71 72 73 74 75 76 78 79 81 83 85 88 89 88 85 83 80 77 74 71 67 64 61 58 55 53 53 54 54 55 55 54 55 54 52 51 50 49 49 48 47 48 48 44 41 42 44 44 41 35 30 28 28 27 25 24 23 24 25 27 33 39 43 45 49 55 63
66 67 67 68 69 69 70 71 72 73 75 76 77 78 80 82 84 86 88 87 84 82 80 77 74 71 68 65 62 59 56 54 54 55 56 56 55 53 52 53 53 50 48 48 49 48 47 45 45 47 46 43 41 41 42 40 35 29 27 26 25 22 21 20 20 22 26 31 37 40 43 47 52 61
66 67 68 68 69 70 71 72 73 74 75 76 77 79 81 82 84 86 86 84 81 79 76 73 70 68 66 64 62 61 59 56 55 54 54 53 52 51 50 49 50 48 46 46 48 48 46 43 41 44 47 46 42 38 39 39 36 30 27 25 23 20 18 17 18 20 25 30 35 39 42 46 52 59
67 67 68 69 69 70 71 72 73 74 76 77 78 80 81 83 85 86 84 81 78 75 72 70 67 65 64 62 62 62 60 58 56 54 52 51 49 48 48 48 48 48 46 45 47 47 45 41 38 38 42 47 48 43 38 38 36 31 25 23 22 19 17 16 17 20 25 30 34 38 42 46 52 58
67 68 68 69 69 70 71 72 73 75 76 78 79 80 82 84 85 83 81 78 75 71 69 67 65 63 62 61 62 62 61 58 57 54 51 49 47 47 48 48 47 45 44 43 44 43 41 39 37 35 33 37 44 44 38 34 34 31 25 21 19 17 15 16 17 19 25 30 34 37 42 47 53 58
68 68 69 69 70 71 71 72 74 76 77 78 80 81 83 84 83 81 78 74 70 67 66 64 62 61 60 60 62 62 62 60 58 55 53 50 48 47 47 48 47 45 43 42 41 41 39 36 36 36 34 32 35 38 34 29 28 27 24 20 16 14 13 14 16 18 24 29 33 38 43 48 53 57
69 69 69 69 70 71 72 73 75 76 78 79 80 81 83 82 80 78 75 70 66 64 63 61 60 59 58 60 62 62 62 61 58 56 55 52 49 47 45 45 45 45 44 43 42 41 38 34 32 34 37 36 35 36 34 27 22 21 21 18 14 12 11 12 14 17 22 28 33 38 43 48 52 56
69 69 69 69 70 71 72 74 75 77 78 79 80 81 82 80 78 75 71 66 63 62 61 59 58 58 57 59 60 61 61 60 58 56 55 52 50 48 46 44 43 42 41 41 41 41 39 35 31 30 33 34 34 34 33 29 23 20 18 15 12 10 9 10 13 15 20 27 33 38 43 47 51 54
68 69 69 69 70 72 73 75 76 77 78 79 80 81 80 78 75 72 67 63 61 60 59 58 58 57 57 57 58 60 60 59 57 55 54 52 51 48 46 45 44 43 41 40 40 40 39 37 31 28 29 31 30 30 30 28 24 21 17 13 10 9 8 9 11 14 20 27 34 40 44 47 50 53
68 69 69 70 71 73 74 75 76 77 78 80 80 80 78 75 73 69 64 61 60 58 57 57 57 57 56 56 57 58 59 58 56 54 53 53 52 50 47 45 44 45 44 42 40 39 38 38 34 29 27 28 28 27 27 25 22 19 16 11 9 8 6 8 11 15 20 28 35 40 44 46 49 52
68 69 70 71 72 73 74 75 77 78 79 80 80 78 75 73 70 66 62 60 58 57 57 57 57 57 56 55 56 56 57 56 54 52 52 52 51 51 50 47 46 46 45 43 41 39 37 37 35 31 27 27 27 27 26 23 21 18 15 11 7 6 5 7 12 16 21 29 36 41 44 46 49 52
67 69 71 72 73 74 74 76 77 78 80 80 78 76 73 71 67 63 61 59 57 56 56 56 56 56 56 55 55 55 55 54 52 50 49 49 48 48 48 47 46 46 46 45 42 39 37 36 36 33 29 28 28 27 25 22 20 17 14 11 7 4 3 7 13 17 22 29 36 41 44 47 50 54
68 70 71 73 74 74 75 76 77 79 80 79 76 73 72 69 65 61 59 57 56 55 55 56 56 56 55 54 53 53 53 52 51 48 47 47 46 45 45 45 44 43 45 46 44 41 37 36 35 34 31 28 28 27 25 22 19 17 14 11 7 3 2 7 13 18 23 28 35 40 43 47 52 56
69 70 72 73 74 74 75 76 78 80 80 78 74 72 70 66 62 60 58 56 55 54 54 55 55 54 54 53 52 52 52 50 49 47 45 46 45 44 43 42 41 40 41 44 45 44 39 35 33 33 32 28 27 27 26 23 21 19 16 11 7 3 2 7 13 19 23 27 32 36 39 45 52 57
69 71 72 73 74 75 75 76 78 79 79 76 72 70 67 63 60 59 57 54 53 52 52 53 54 53 52 51 50 50 50 49 48 46 45 45 45 44 43 41 39 37 36 38 41 43 42 38 33 31 30 28 26 25 24 23 21 21 18 12 7 3 2 7 12 18 23 27 30 33 35 41 49 56
70 71 72 73 74 75 76 77 78 78 76 73 71 68 65 61 59 58 56 53 51 50 51 52 53 52 51 49 49 49 48 48 47 46 45 45 44 44 42 39 37 36 35 35 36 39 41 40 36 32 29 28 26 24 22 21 20 20 17 12 7 3 2 7 11 16 21 25 28 30 33 38 46 53
70 71 72 73 74 75 76 77 77 76 74 71 69 66 62 60 58 57 55 52 50 49 50 51 52 51 50 48 47 47 46 46 45 45 44 44 44 43 41 37 36 34 33 33 33 34 36 37 37 34 30 27 26 25 23 21 20 19 17 12 7 3 2 6 10 15 19 23 26 28 31 36 43 50
70 71 73 73 74 76 77 77 76 74 72 69 66 63 60 58 57 56 53 52 49 47 48 50 51 50 49 47 46 46 45 44 43 43 43 43 43 43 41 39 36 34 32 31 31 31 32 33 33 33 30 25 22 22 21 20 18 17 16 13 8 3 3 6 9 13 17 21 24 27 29 34 41 47
71 72 73 74 75 76 76 76 74 72 69 66 63 60 58 57 56 55 53 51 48 46 47 49 50 49 48 46 44 44 44 44 42 41 41 41 41 42 42 40 37 34 31 31 30 29 29 29 30 31 29 25 21 19 18 17 16 14 14 13 8 4 4 6 9 13 16 20 24 27 30 34 41 47
72 72 73 75 76 76 75 73 72 70 68 64 60 58 57 56 55 53 52 50 47 46 46 48 49 48 46 44 43 42 43 44 43 41 40 40 40 41 41 40 38 35 32 30 29 28 27 27 27 28 28 26 23 20 17 16 15 13 12 11 8 4 4 7 10 13 17 20 24 28 31 36 42 48
72 73 75 76 76 75 73 71 71 70 66 62 58 56 56 55 54 52 50 49 47 45 45 47 47 46 45 44 42 41 42 43 43 41 40 40 39 40 40 39 38 36 33 29 28 28 27 26 26 27 27 25 23 20 17 15 14 13 10 8 6 4 3 7 11 14 18 21 25 29 33 38 44 50
73 74 76 76 75 73 71 70 70 68 64 59 56 55 55 54 53 51 49 48 46 45 45 46 46 45 44 42 40 39 41 43 43 42 41 40 39 39 40 39 37 35 33 29 27 27 26 25 24 24 24 23 20 17 15 13 11 10 9 6 5 3 2 6 10 14 18 22 25 29 34 40 46 51
74 75 76 75 74 72 70 69 68 66 62 58 55 55 54 52 51 50 48 47 46 44 43 44 45 44 43 41 39 38 40 42 43 43 42 41 41 40 40 39 37 35 32 29 26 25 25 24 23 21 21 21 19 16 13 11 9 8 8 6 3 2 2 5 9 14 18 22 26 30 35 41 47 52
74 75 75 74 72 71 70 68 65 62 59 57 55 54 52 50 49 48 46 45 45 43 42 43 44 43 41 40 39 38 38 41 43 43 42 42 41 41 40 39 37 35 32 29 25 23 23 23 22 21 20 20 19 17 15 13 10 8 7 5 4 1 3 5 8 13 17 21 26 30 35 41 47 53
75 74 73 72 72 70 67 64 62 60 58 56 54 52 51 49 47 46 45 44 44 43 41 42 43 42 40 39 38 37 38 40 42 43 43 42 41 41 40 38 36 34 32 28 24 21 20 21 21 21 20 19 18 17 15 13 11 9 6 4 4 3 3 6 8 12 16 21 25 30 35 40 46 52
73 72 71 71 70 67 64 62 60 59 57 55 53 50 48 46 45 44 43 43 43 42 41 42 43 42 40 38 37 37 38 39 41 43 43 42 41 40 40 38 36 33 31 28 25 21 19 18 19 19 19 19 18 16 15 12 11 9 7 5 3 3 4 6 8 11 15 19 24 30 35 40 45 51
71 70 70 69 66 64 62 60 59 57 55 52 50 48 46 44 43 42 42 41 41 40 40 41 42 42 40 39 37 37 38 39 41 42 42 41 40 40 39 37 34 31 29 27 24 21 19 18 17 16 17 17 17 16 15 13 11 9 8 7 5 4 4 6 8 11 14 19 23 29 34 39 44 50
Wind_Direction
313 315 317 318 317 316 315 314 314 315 316 317 318 319 320 320 320 319 318 318 318 318 318 318 319 320 321 322 322 323 324 325 326 326 325 323 322 321 319 318 317 316 315 315 314 312 310 305 300 295 290 285 282 280 277 275 273 270 265 259 253 247 242 238 234 230 227 224 221 221 220 219 218 214
314 317 318 318 317 316 315 315 315 316 317 317 318 319 320 320 320 319 318 318 318 319 319 319 319 321 322 323 324 325 326 327 327 326 325 324 322 321 320 319 318 317 316 316 315 314 311 306 301 296 291 286 283 280 278 276 274 272 268 262 256 249 242 238 235 231 227 225 221 219 219 218 218 216
316 317 318 318 318 317 317 316 316 316 316 317 318 319 320 320 320 319 319 319 319 319 319 320 321 322 323 324 325 326 327 327 327 326 324 324 322 321 320 319 318 317 317 316 315 314 311 307 302 297 292 287 283 281 279 277 274 270 268 263 257 251 244 238 235 231 227 225 222 219 218 217 217 216
317 318 318 318 318 318 317 316 315 316 317 318 319 319 320 320 320 320 319 319 319 320 320 320 322 323 324 325 326 327 327 327 326 325 324 324 322 321 320 319 318 318 317 316 316 316 312 309 306 301 294 288 284 282 280 279 276 271 266 263 258 253 246 239 235 232 228 225 223 220 217 216 215 215
317 318 318 318 318 318 317 316 316 317 318 318 319 320 320 320 320 319 319 320 320 320 321 322 323 325 325 326 326 327 327 327 326 324 324 323 321 320 319 319 319 318 318 317 318 318 314 312 311 306 299 292 285 282 280 278 276 273 266 261 258 254 249 242 235 232 228 225 223 221 217 216 215 214
317 317 318 318 317 317 316 316 317 318 318 318 319 319 320 320 320 320 320 321 321 321 322 323 325 326 326 326 326 326 326 326 325 324 323 322 321 320 320 320 320 319 318 318 320 320 315 314 314 309 302 295 288 283 279 276 274 273 269 261 256 253 250 245 238 233 229 225 223 222 218 216 214 213
317 317 318 318 317 317 317 317 317 318 318 318 319 319 319 319 319 320 320 321 321 322 323 324 325 325 325 325 325 325 325 325 324 324 323 322 321 320 320 321 321 320 319 319 322 321 316 316 317 312 306 301 294 287 281 276 272 271 271 265 257 251 249 247 240 234 231 226 223 222 220 216 214 213
316 317 317 317 317 317 317 317 317 317 318 318 319 319 318 318 319 320 320 321 322 323 324 324 324 324 324 324 324 325 324 324 324 324 323 322 321 321 321 322 322 322 320 321 322 321 317 317 320 318 312 307 301 295 288 281 273 269 269 268 262 252 247 247 243 236 231 228 223 221 220 218 215 213
316 316 317 317 317 317 317 317 317 317 318 318 318 318 317 318 319 320 321 321 322 323 324 323 323 323 324 324 324 324 324 324 325 325 323 322 322 322 323 323 324 322 321 321 322 322 319 319 323 322 315 309 305 299 294 287 280 272 268 267 265 258 248 244 243 239 232 228 224 221 220 219 215 213
315 316 316 316 317 317 317 317 317 317 317 317 317 316 317 318 320 320 321 321 322 323 323 323 323 323 323 324 324 324 323 324 325 325 324 323 323 325 324 324 323 322 321 321 322 323 321 320 323 322 314 309 305 301 297 291 284 278 271 265 263 261 254 244 241 240 235 229 226 221 219 219 217 213
315 315 316 316 316 316 316 316 317 317 317 316 316 316 317 319 320 320 321 321 322 322 322 322 322 323 324 324 324 323 324 325 326 326 325 325 325 325 324 322 322 322 321 321 322 323 321 318 319 320 315 310 306 302 299 294 288 281 275 269 263 261 258 250 241 239 237 231 227 223 219 218 217 214
314 315 315 315 314 315 316 317 317 317 316 315 315 316 318 319 319 320 321 321 322 322 322 322 322 323 323 324 324 324 325 326 326 326 326 325 325 324 322 321 322 322 321 321 321 321 320 318 319 323 319 313 307 303 300 297 294 287 279 272 266 261 259 254 245 239 237 233 228 225 220 218 217 214
314 314 314 314 314 316 316 317 316 316 315 315 316 317 318 319 319 320 321 321 321 322 322 322 323 323 323 324 324 324 325 326 326 326 325 325 326 325 323 322 321 321 322 321 320 321 321 320 322 326 323 316 310 305 300 297 295 291 284 276 268 263 259 257 250 240 237 235 229 225 222 218 217 214
313 313 313 314 315 316 316 316 316 315 315 316 317 318 318 319 319 320 321 321 321 322 322 322 322 323 323 323 323 324 325 326 325 325 325 327 327 325 323 321 320 320 321 321 322 324 324 322 324 327 324 317 312 308 304 300 295 292 287 280 271 266 261 259 254 244 237 235 231 226 222 219 217 214
312 312 313 314 315 316 316 315 315 315 316 317 317 318 319 319 320 320 321 321 321 322 322 322 322 323 323 323 324 325 326 325 324 325 327 328 326 323 321 319 317 319 322 324 326 326 325 322 323 326 324 318 314 311 307 303 299 295 291 285 276 269 263 260 257 248 238 234 232 228 223 219 217 215
312 312 313 314 314 315 314 314 315 315 316 317 318 318 319 319 320 320 321 321 321 322 322 322 322 322 322 323 324 325 324 323 324 327 328 328 324 321 319 318 319 322 325 328 327 326 324 322 322 325 325 321 316 313 309 305 303 301 297 292 284 273 266 261 258 251 239 233 231 229 224 219 216 214
311 311 312 313 313 313 314 314 315 316 316 317 318 319 319 319 320 320 321 321 322 322 322 322 322 322 322 322 323 323 323 323 326 328 328 326 322 321 321 322 324 327 329 329 327 325 324 323 322 324 325 322 317 314 311 308 306 305 301 296 289 279 271 264 258 252 240 231 229 228 224 219 215 213
310 311 312 312 312 313 314 315 315 316 316 317 318 318 319 319 320 321 322 322 322 322 322 321 321 321 321 321 322 322 322 324 327 328 327 326 325 326 326 326 328 330 330 329 327 326 326 324 322 323 324 321 318 315 313 312 311 309 304 297 291 284 277 267 258 249 237 227 225 224 222 218 214 212
310 310 311 311 312 313 314 315 315 316 316 317 318 318 319 319 320 321 322 322 322 322 321 320 320 320 319 321 321 321 321 325 329 332 331 331 331 331 330 329 330 331 330 328 328 328 328 326 323 321 322 321 318 315 315 314 314 313 307 299 293 288 280 269 257 245 232 224 221 220 218 215 211 210
309 309 310 311 312 313 314 315 315 316 317 317 318 318 319 320 321 321 322 322 322 321 320 320 320 320 320 322 322 322 325 330 335 336 335 333 332 332 332 330 328 329 329 329 329 329 328 327 324 321 320 320 318 317 317 317 317 317 312 302 296 292 283 270 256 240 227 220 218 215 212 210 208 207
308 309 310 311 312 313 314 315 315 316 317 317 318 318 319 320 321 321 322 322 322 321 321 321 321 321 322 324 325 326 329 333 337 337 335 332 332 333 332 329 327 328 331 331 330 329 328 327 325 323 321 319 318 320 321 319 318 319 316 306 298 294 285 270 251 233 222 216 214 211 207 204 204 204
308 309 310 311 313 313 314 315 316 316 317 317 318 319 320 321 322 322 322 322 322 322 322 322 322 323 325 327 328 328 330 333 336 336 334 333 333 332 331 330 330 331 333 333 331 329 328 327 326 326 325 322 321 323 325 322 319 319 317 309 300 293 283 267 247 228 216 212 210 207 202 200 201 202
309 310 310 312 313 313 314 315 316 316 317 318 319 319 320 321 322 322 323 323 323 323 323 323 323 325 327 329 329 329 330 333 336 335 333 333 334 334 333 332 332 331 332 333 331 328 328 327 325 325 324 321 319 320 323 324 321 319 318 312 301 291 277 261 244 225 214 209 206 202 199 197 198 200
309 310 311 312 313 314 315 315 316 316 317 318 319 320 321 322 322 323 323 323 323 323 323 323 324 326 328 329 329 329 330 333 335 334 334 335 336 338 336 333 331 331 332 333 332 329 329 330 328 325 322 321 319 319 321 325 323 318 316 313 302 288 271 255 241 224 214 208 202 198 196 196 197 199
309 310 311 313 314 314 315 315 316 316 317 318 319 320 321 322 323 323 324 324 324 324 324 324 325 327 330 330 330 329 329 332 334 334 334 335 337 338 337 334 332 332 333 335 335 333 332 332 333 329 326 326 327 325 325 327 326 319 315 313 304 287 268 249 236 223 213 207 200 196 194 195 196 197
309 310 312 313 314 314 315 315 316 316 317 318 319 321 322 322 323 323 324 324 324 324 324 325 326 328 331 331 330 328 329 331 333 334 334 335 336 337 336 335 333 332 334 336 337 336 334 334 336 335 331 330 330 330 330 331 329 324 318 314 304 288 268 243 227 216 209 203 196 193 193 193 195 195
310 311 312 313 314 314 315 315 316 316 317 318 320 322 322 322 323 323 324 324 325 325 325 325 326 328 331 331 329 328 328 331 333 333 333 334 335 337 337 336 334 334 336 339 341 340 337 335 337 339 336 334 335 337 335 332 329 324 320 316 308 291 268 236 215 205 202 198 193 192 192 192 193 193
310 310 311 313 314 314 315 315 316 316 317 319 321 322 322 322 323 324 324 324 325 325 325 325 326 328 331 331 329 328 328 329 332 333 333 334 336 337 337 338 337 336 337 340 342 343 340 337 338 341 342 339 340 341 338 334 332 328 323 321 316 298 270 228 204 194 195 195 192 191 191 191 191 190
310 310 311 313 313 314 315 315 316 316 318 319 321 322 322 322 323 324 324 324 325 325 324 325 326 328 331 331 329 327 327 328 331 333 334 335 336 337 338 339 339 338 337 339 342 344 344 340 339 342 346 345 344 345 344 341 340 335 329 329 325 305 266 220 198 189 190 194 193 191 190 189 189 188
309 310 311 312 313 314 314 315 316 317 318 320 321 322 321 322 323 323 324 324 324 324 324 325 327 329 331 331 328 326 327 328 331 334 334 334 336 338 339 339 340 338 336 337 341 344 347 345 341 342 349 351 348 349 350 349 346 344 341 339 335 318 254 214 198 188 188 195 196 193 190 187 186 185
309 310 311 312 312 313 314 315 316 317 318 320 321 321 321 321 322 322 323 324 324 324 324 325 327 328 330 329 328 326 327 329 331 333 334 334 336 338 340 340 339 338 336 336 338 343 348 349 346 344 349 354 353 352 354 356 357 357 354 348 341 327 229 208 200 190 187 196 201 198 192 187 184 183
309 310 310 311 312 313 314 316 317 318 318 320 321 321 320 321 321 321 322 323 324 324 324 324 326 327 328 328 327 326 327 328 330 332 334 334 335 338 341 340 338 338 339 337 338 340 344 349 351 348 348 354 358 356 356 359 5 6 1 355 349 331 211 198 201 195 188 194 203 204 198 191 185 183
309 310 310 311 312 313 315 316 317 317 318 319 320 319 319 319 320 320 321 323 323 323 323 323 324 326 327 328 327 326 327 329 331 333 334 334 336 339 341 340 338 338 339 339 338 339 340 345 350 351 350 352 358 1 359 1 9 10 3 355 353 339 207 189 197 198 191 191 199 206 204 196 188 184
309 309 310 311 312 314 315 316 316 316 317 318 319 318 318 318 319 320 321 322 323 323 322 322 324 326 327 328 327 327 328 330 332 333 334 334 336 337 338 339 339 338 339 339 339 340 340 342 346 350 352 353 355 -0 2 5 11 13 6 358 2 7 189 182 190 197 194 189 193 200 204 200 192 187
308 309 310 311 312 313 314 315 315 315 316 317 317 316 316 317 318 319 320 322 323 323 322 322 324 325 326 328 328 327 328 330 332 333 334 334 334 334 335 339 340 339 338 339 340 340 341 342 343 346 350 353 355 358 1 5 9 14 12 8 13 35 147 174 182 192 193 189 187 192 198 199 194 190
308 309 310 311 312 313 314 314 314 314 315 316 316 315 315 316 317 318 319 321 322 322 322 322 323 324 325 327 328 328 328 330 332 333 332 332 332 333 335 338 340 339 338 339 339 340 341 342 343 343 345 351 356 358 0 3 6 13 19 16 16 46 120 159 174 182 187 187 183 185 191 194 193 190
308 309 310 311 311 312 313 313 313 313 314 315 314 313 314 315 316 317 319 320 321 322 321 321 322 323 324 327 329 328 328 329 331 332 331 332 333 334 335 337 338 338 339 338 338 339 341 343 344 344 344 348 354 359 1 2 3 13 23 22 19 50 113 146 166 173 178 181 180 179 183 188 189 189
308 309 310 310 311 312 312 312 312 312 313 314 313 313 314 314 315 316 317 318 319 321 321 320 320 321 323 326 329 329 328 328 329 331 332 333 334 334 333 334 336 337 339 338 336 337 340 343 344 345 346 347 351 356 359 0 3 12 22 25 25 49 116 145 160 169 173 176 178 178 179 182 185 187
308 309 309 310 310 311 311 311 311 311 312 312 312 312 313 313 313 315 316 316 318 320 320 319 319 320 323 326 329 330 328 326 327 330 332 333 334 333 332 333 335 336 337 338 337 336 339 343 345 346 346 346 347 350 354 357 2 5 9 21 36 52 122 152 161 169 173 175 177 179 179 181 183 186
308 308 309 309 310 311 311 310 310 310 311 311 311 311 311 311 311 313 314 314 316 318 318 317 317 319 322 326 329 329 327 325 326 329 331 332 333 332 331 332 334 335 335 337 337 336 337 341 344 345 343 341 341 343 347 351 355 354 354 10 42 61 127 161 167 173 177 177 179 181 182 182 184 186
307 308 309 309 310 310 310 309 309 308 309 309 310 310 309 309 309 311 312 312 314 316 316 315 315 317 321 325 328 329 327 325 325 327 329 330 331 332 331 332 333 333 334 336 337 336 335 337 340 342 341 339 338 340 344 346 347 350 354 0 19 77 142 174 180 181 181 182 182 183 185 185 185 186
308 309 309 309 309 309 309 308 307 307 307 308 308 308 307 307 307 308 309 310 312 314 315 314 314 317 321 325 328 328 327 324 323 324 327 330 331 331 331 331 332 332 333 334 335 335 334 333 336 340 343 343 342 344 346 347 345 347 353 352 344 303 177 186 191 189 188 187 186 186 188 189 188 188
308 308 309 309 309 309 308 307 306 305 306 306 306 306 305 305 305 306 307 308 310 312 313 313 313 316 320 324 326 326 324 322 321 323 325 328 329 329 330 330 331 331 331 332 333 333 333 333 335 339 342 343 343 344 345 344 340 336 336 339 328 291 224 200 197 197 196 194 191 190 190 191 192 192
308 308 308 309 309 308 306 305 305 304 304 304 303 303 303 303 303 303 304 306 309 311 312 311 311 314 319 323 323 323 322 320 320 321 324 326 328 329 329 330 330 330 330 330 331 331 332 333 335 337 339 340 341 342 343 343 339 331 322 315 304 282 252 222 207 203 201 200 197 195 194 194 194 195
307 308 309 309 308 306 305 305 304 304 303 302 301 301 301 301 301 302 303 305 308 309 310 309 310 313 317 320 320 320 319 319 318 319 322 325 327 327 327 328 328 328 328 328 329 329 331 332 334 334 336 336 337 338 341 342 340 331 318 305 288 269 252 237 222 211 206 205 203 200 198 197 197 197
Height
10642 10639 10635 10631 10627 10623 10619 10615 10611 10607 10602 10598 10594 10590 10586 10582 10577 10572 10567 10561 10555 10550 10545 10540 10534 10529 10524 10517 10510 10503 10496 10487 10479 10471 10463 10455 10447 10439 10432 10426 10421 10417 10413 10410 10407 10405 10402 10398 10394 10390 10386 10382 10378 10376 10374 10373 10373 10374 10376 10378 10380 10384 10388 10392 10396 10402 10409 10416 10423 10432 10441 10449 10457 10465
10637 10633 10630 10626 10622 10618 10614 10609 10605 10601 10597 10592 10588 10584 10579 10575 10570 10565 10560 10555 10549 10542 10536 10532 10526 10520 10514 10508 10500 10492 10484 10476 10468 10461 10453 10446 10438 10431 10424 10417 10412 10408 10404 10401 10398 10395 10392 10389 10385 10382 10378 10374 10369 10366 10364 10364 10364 10365 10366 10367 10370 10373 10377 10381 10385 10390 10397 10403 10411 10420 10429 10437 10446 10455
10632 10628 10624 10621 10617 10612 10608 10604 10600 10595 10591 10587 10582 10578 10573 10569 10564 10558 10552 10547 10543 10538 10531 10524 10518 10511 10505 10498 10491 10482 10474 10467 10459 10451 10445 10438 10430 10423 10417 10410 10404 10400 10396 10393 10390 10386 10382 10380 10377 10374 10371 10367 10362 10358 10355 10355 10356 10356 10356 10357 10359 10361 10365 10370 10374 10379 10385 10392 10398 10407 10416 10425 10434 10444
10626 10623 10619 10615 10611 10607 10603 10599 10594 10590 10585 10581 10576 10572 10567 10562 10557 10551 10545 10539 10534 10531 10525 10518 10511 10504 10497 10489 10483 10475 10467 10460 10451 10443 10436 10430 10423 10416 10410 10404 10398 10393 10389 10385 10382 10378 10373 10370 10369 10366 10363 10359 10355 10351 10348 10346 10347 10347 10348 10348 10349 10351 10354 10358 10363 10367 10374 10380 10387 10395 10403 10412 10422 10431
10621 10618 10614 10610 10606 10602 10598 10593 10589 10584 10579 10574 10570 10565 10560 10555 10550 10544 10539 10533 10526 10521 10517 10511 10504 10497 10489 10481 10474 10468 10461 10454 10446 10436 10428 10422 10415 10409 10404 10398 10391 10386 10381 10377 10375 10371 10365 10362 10360 10357 10354 10351 10348 10344 10341 10339 10337 10338 10339 10340 10340 10342 10344 10348 10353 10357 10362 10369 10376 10383 10391 10400 10409 10419
10616 10613 10609 10605 10601 10597 10592 10588 10583 10578 10573 10569 10564 10559 10554 10549 10543 10538 10532 10527 10520 10513 10507 10502 10496 10489 10482 10474 10467 10461 10455 10448 10441 10432 10423 10416 10408 10401 10396 10392 10385 10379 10373 10369 10367 10363 10357 10354 10353 10348 10344 10342 10340 10337 10335 10332 10330 10329 10330 10331 10332 10334 10335 10338 10343 10347 10352 10358 10365 10372 10380 10388 10397 10407
10611 10608 10604 10600 10596 10591 10587 10582 10577 10573 10568 10563 10558 10553 10548 10543 10537 10532 10527 10521 10515 10508 10500 10494 10489 10483 10476 10469 10462 10456 10449 10442 10436 10427 10417 10409 10402 10394 10388 10384 10378 10371 10365 10361 10360 10356 10349 10347 10346 10341 10335 10333 10331 10329 10328 10326 10324 10321 10321 10322 10324 10325 10327 10329 10333 10338 10343 10348 10355 10361 10369 10377 10386 10396
10606 10602 10599 10595 10590 10586 10581 10577 10572 10567 10562 10558 10553 10548 10542 10537 10532 10526 10521 10516 10510 10503 10496 10488 10482 10477 10471 10464 10456 10450 10443 10435 10429 10421 10411 10402 10395 10387 10380 10375 10370 10364 10357 10353 10352 10348 10341 10339 10338 10334 10328 10325 10323 10321 10320 10318 10317 10316 10314 10314 10315 10317 10319 10321 10324 10329 10333 10339 10345 10352 10359 10367 10376 10385
10601 10597 10593 10589 10585 10580 10576 10571 10566 10562 10557 10553 10548 10542 10537 10531 10526 10521 10515 10509 10504 10498 10491 10484 10476 10470 10464 10458 10450 10443 10436 10429 10423 10415 10404 10395 10388 10381 10373 10367 10363 10357 10349 10345 10345 10341 10334 10330 10331 10327 10322 10318 10315 10313 10312 10311 10310 10310 10308 10307 10307 10308 10311 10313 10315 10319 10324 10329 10335 10341 10349 10356 10365 10375
10595 10591 10587 10583 10579 10574 10570 10566 10561 10557 10552 10547 10542 10537 10531 10526 10520 10515 10509 10504 10498 10492 10485 10478 10470 10463 10457 10451 10443 10435 10429 10423 10418 10410 10400 10389 10381 10374 10367 10362 10357 10351 10343 10338 10336 10335 10328 10323 10323 10322 10316 10312 10308 10305 10304 10304 10303 10302 10301 10300 10300 10300 10302 10304 10307 10310 10314 10319 10325 10331 10338 10345 10354 10364
10590 10586 10582 10578 10573 10569 10565 10561 10556 10552 10547 10542 10537 10531 10526 10521 10515 10509 10503 10497 10492 10485 10479 10471 10463 10456 10449 10443 10436 10429 10422 10415 10409 10404 10396 10385 10376 10369 10363 10358 10354 10347 10339 10332 10328 10327 10322 10317 10317 10316 10311 10306 10302 10298 10296 10295 10295 10295 10294 10293 10293 10293 10294 10296 10299 10301 10305 10310 10315 10321 10327 10334 10343 10353
10585 10581 10577 10573 10569 10564 10560 10555 10551 10546 10541 10536 10531 10526 10521 10516 10510 10504 10497 10491 10485 10478 10472 10464 10456 10448 10442 10436 10430 10422 10415 10409 10401 10395 10389 10382 10375 10367 10358 10352 10349 10344 10337 10328 10323 10321 10316 10311 10310 10310 10305 10300 10296 10292 10289 10287 10287 10287 10287 10286 10285 10285 10286 10287 10291 10293 10296 10300 10306 10312 10318 10324 10332 10342
10580 10576 10572 10568 10564 10559 10555 10550 10545 10541 10535 10530 10525 10520 10515 10510 10504 10498 10492 10485 10478 10471 10464 10456 10449 10441 10434 10429 10423 10416 10409 10403 10397 10390 10384 10377 10370 10363 10354 10345 10341 10339 10334 10325 10319 10315 10310 10304 10303 10303 10299 10294 10290 10286 10283 10281 10280 10278 10278 10278 10277 10277 10278 10279 10282 10285 10288 10291 10296 10302 10308 10314 10322 10332
10575 10571 10567 10563 10559 10554 10550 10545 10540 10535 10530 10525 10520 10515 10510 10504 10499 10493 10486 10479 10471 10463 10455 10449 10442 10435 10427 10422 10417 10411 10404 10398 10392 10386 10380 10373 10365 10359 10352 10343 10335 10332 10329 10322 10314 10309 10304 10299 10297 10297 10294 10288 10284 10281 10277 10274 10272 10271 10270 10269 10269 10269 10270 10271 10274 10277 10280 10283 10287 10292 10298 10305 10312 10321
10570 10566 10562 10558 10554 10549 10545 10540 10535 10529 10524 10519 10514 10509 10504 10498 10492 10487 10480 10473 10465 10457 10449 10441 10435 10428 10421 10415 10410 10405 10399 10393 10387 10381 10375 10369 10362 10355 10351 10345 10336 10329 10325 10318 10310 10304 10299 10293 10291 10292 10289 10284 10279 10275 10271 10268 10265 10264 10262 10261 10262 10262 10263 10263 10265 10268 10271 10274 10278 10283 10289 10296 10303 10312
10566 10562 10557 10553 10549 10544 10540 10535 10529 10524 10519 10513 10508 10503 10497 10491 10486 10481 10475 10467 10459 10451 10442 10434 10428 10422 10415 10409 10404 10400 10395 10389 10383 10377 10370 10363 10357 10351 10346 10341 10334 10327 10320 10314 10307 10301 10296 10289 10286 10285 10283 10278 10273 10269 10265 10261 10259 10257 10255 10254 10254 10254 10254 10255 10256 10259 10262 10265 10269 10275 10280 10287 10295 10303
10561 10557 10552 10548 10543 10539 10534 10529 10524 10519 10514 10508 10503 10498 10492 10485 10479 10473 10467 10460 10452 10444 10436 10428 10421 10415 10410 10405 10400 10396 10392 10386 10380 10374 10367 10360 10353 10346 10339 10333 10327 10321 10316 10311 10305 10299 10293 10286 10281 10279 10278 10273 10267 10263 10258 10255 10253 10251 10249 10247 10246 10245 10246 10248 10249 10250 10254 10257 10261 10266 10272 10279 10287 10295
10556 10552 10547 10543 10538 10533 10529 10524 10519 10514 10508 10503 10498 10493 10486 10480 10473 10466 10460 10452 10444 10436 10429 10421 10415 10409 10405 10401 10397 10392 10387 10382 10378 10372 10366 10357 10348 10339 10331 10325 10320 10315 10311 10307 10301 10295 10290 10283 10277 10273 10273 10269 10263 10257 10253 10249 10247 10245 10243 10240 10239 10238 10238 10240 10241 10243 10246 10249 10253 10258 10264 10272 10280 10287
10551 10546 10542 10537 10532 10528 10523 10519 10514 10508 10503 10498 10493 10487 10481 10475 10469 10462 10454 10447 10439 10431 10424 10418 10412 10406 10401 10397 10393 10388 10383 10378 10373 10366 10358 10349 10342 10334 10326 10319 10314 10310 10306 10301 10297 10291 10286 10281 10274 10268 10267 10265 10259 10253 10249 10244 10242 10240 10238 10235 10234 10233 10233 10233 10235 10237 10239 10242 10246 10251 10257 10265 10273 10281
10545 10541 10536 10531 10527 10522 10518 10513 10508 10503 10498 10493 10487 10482 10476 10470 10463 10456 10449 10442 10434 10427 10419 10413 10406 10400 10394 10389 10384 10379 10375 10370 10365 10358 10350 10343 10337 10331 10324 10318 10312 10308 10303 10298 10293 10288 10284 10279 10272 10264 10260 10259 10256 10250 10245 10240 10237 10235 10233 10231 10229 10229 10228 10228 10229 10231 10234 10236 10240 10244 10251 10258 10266 10274
10539 10534 10530 10525 10521 10516 10512 10507 10502 10497 10492 10486 10481 10476 10470 10464 10457 10450 10443 10436 10428 10421 10414 10407 10400 10393 10387 10381 10375 10369 10365 10362 10359 10355 10349 10342 10336 10329 10323 10317 10311 10305 10301 10296 10290 10284 10280 10277 10271 10263 10255 10251 10250 10248 10243 10237 10233 10231 10229 10227 10226 10225 10225 10224 10225 10226 10228 10231 10235 10239 10245 10252 10260 10267
10532 10528 10524 10519 10515 10510 10506 10501 10496 10491 10486 10480 10475 10469 10463 10458 10451 10443 10436 10429 10422 10415 10408 10401 10394 10388 10382 10375 10369 10363 10359 10356 10354 10351 10347 10341 10335 10327 10321 10315 10308 10302 10297 10293 10287 10282 10277 10273 10270 10264 10254 10244 10239 10240 10241 10235 10230 10227 10226 10224 10223 10223 10222 10221 10221 10222 10224 10227 10231 10235 10240 10246 10254 10261
10526 10522 10518 10514 10509 10504 10500 10495 10490 10484 10479 10474 10469 10463 10457 10451 10444 10437 10430 10423 10416 10409 10402 10395 10389 10382 10377 10371 10364 10358 10354 10351 10349 10346 10342 10338 10332 10325 10317 10311 10306 10301 10296 10292 10287 10281 10276 10271 10266 10263 10259 10250 10240 10235 10236 10234 10228 10224 10222 10221 10220 10220 10219 10219 10219 10220 10221 10224 10227 10231 10236 10241 10248 10255
10519 10515 10511 10508 10503 10498 10493 10488 10483 10478 10473 10468 10463 10457 10451 10444 10437 10431 10425 10418 10412 10405 10398 10392 10385 10379 10373 10367 10360 10354 10349 10346 10343 10339 10335 10332 10327 10322 10315 10307 10302 10298 10294 10289 10284 10279 10274 10269 10263 10258 10255 10252 10245 10237 10233 10232 10228 10223 10220 10219 10218 10217 10216 10216 10216 10217 10219 10221 10224 10228 10233 10238 10244 10251
10513 10508 10505 10502 10497 10491 10487 10482 10477 10472 10466 10461 10457 10451 10444 10438 10431 10425 10419 10413 10407 10400 10394 10388 10382 10376 10371 10364 10357 10351 10346 10342 10338 10334 10329 10326 10322 10318 10314 10307 10300 10294 10289 10285 10280 10275 10271 10267 10262 10255 10249 10246 10242 10236 10230 10228 10226 10222 10219 10217 10216 10215 10214 10214 10215 10216 10218 10220 10223 10227 10230 10235 10241 10249
10507 10502 10498 10495 10490 10485 10480 10476 10470 10465 10460 10455 10451 10445 10438 10432 10425 10419 10413 10408 10402 10396 10390 10384 10378 10373 10368 10362 10355 10349 10343 10339 10335 10330 10325 10321 10318 10314 10309 10304 10299 10294 10288 10283 10277 10271 10267 10264 10261 10256 10249 10244 10240 10235 10229 10225 10222 10220 10218 10216 10214 10213 10213 10213 10213 10214 10216 10219 10222 10225 10229 10234 10240 10247
10501 10496 10491 10488 10483 10478 10474 10469 10464 10459 10454 10449 10444 10438 10432 10426 10420 10414 10408 10403 10398 10392 10386 10380 10375 10370 10365 10360 10354 10347 10341 10336 10332 10327 10322 10318 10314 10310 10305 10300 10294 10289 10285 10280 10275 10269 10264 10260 10258 10255 10249 10244 10239 10234 10230 10225 10222 10219 10217 10215 10213 10212 10212 10212 10212 10213 10215 10218 10221 10224 10228 10232 10238 10246
10495 10489 10485 10481 10477 10472 10467 10462 10458 10453 10447 10443 10438 10432 10426 10420 10414 10409 10404 10399 10393 10388 10383 10377 10371 10367 10362 10358 10352 10345 10339 10335 10330 10325 10320 10314 10309 10305 10301 10297 10291 10285 10280 10277 10273 10268 10262 10257 10254 10252 10248 10244 10239 10234 10230 10226 10222 10219 10216 10215 10213 10212 10212 10212 10212 10213 10215 10218 10220 10223 10227 10232 10238 10245
10488 10483 10478 10474 10470 10466 10461 10456 10451 10446 10441 10436 10432 10426 10420 10414 10409 10404 10399 10394 10389 10384 10379 10374 10368 10363 10358 10354 10349 10343 10337 10333 10329 10323 10318 10312 10307 10301 10296 10292 10287 10282 10278 10274 10271 10267 10262 10256 10252 10249 10246 10242 10238 10234 10229 10225 10222 10219 10216 10214 10213 10212 10212 10212 10212 10213 10215 10218 10220 10222 10226 10232 10238 10246
10482 10477 10472 10468 10464 10460 10455 10450 10445 10439 10434 10430 10425 10420 10414 10408 10404 10399 10395 10390 10385 10381 10375 10370 10364 10359 10355 10350 10346 10341 10335 10331 10327 10322 10317 10312 10307 10301 10295 10290 10285 10280 10275 10271 10268 10265 10261 10255 10250 10247 10244 10241 10236 10233 10229 10225 10222 10219 10217 10215 10214 10213 10213 10213 10214 10214 10216 10218 10220 10222 10226 10231 10237 10244
10475 10470 10466 10461 10457 10453 10449 10444 10438 10433 10427 10423 10419 10414 10408 10403 10399 10395 10390 10386 10381 10376 10371 10366 10361 10356 10352 10348 10343 10338 10333 10328 10324 10321 10316 10311 10307 10302 10297 10291 10285 10280 10274 10268 10265 10263 10260 10256 10250 10245 10243 10240 10236 10232 10229 10226 10222 10220 10218 10216 10215 10214 10214 10214 10215 10216 10217 10220 10222 10224 10226 10230 10235 10241
10468 10464 10459 10455 10451 10447 10442 10437 10432 10426 10421 10417 10413 10408 10403 10398 10394 10390 10386 10382 10377 10372 10368 10363 10358 10354 10350 10346 10341 10336 10331 10327 10322 10318 10314 10310 10305 10301 10297 10292 10287 10281 10276 10269 10263 10259 10257 10256 10252 10247 10243 10240 10237 10232 10229 10226 10223 10221 10219 10218 10216 10215 10215 10216 10217 10218 10219 10222 10226 10228 10230 10233 10236 10240
10461 10457 10453 10449 10445 10440 10436 10431 10425 10420 10415 10411 10407 10403 10398 10394 10390 10386 10382 10378 10374 10369 10365 10360 10356 10351 10348 10344 10339 10333 10329 10324 10320 10315 10311 10307 10303 10299 10295 10292 10287 10282 10278 10272 10266 10260 10255 10253 10251 10248 10244 10240 10238 10234 10231 10227 10225 10223 10222 10220 10218 10217 10217 10218 10219 10220 10221 10224 10228 10233 10236 10238 10240 10243
10455 10450 10446 10442 10438 10434 10429 10425 10420 10414 10410 10406 10402 10397 10392 10389 10385 10381 10378 10374 10370 10366 10361 10357 10352 10348 10344 10341 10336 10331 10326 10322 10317 10313 10309 10305 10301 10297 10294 10291 10286 10282 10278 10273 10268 10262 10256 10251 10249 10247 10245 10242 10238 10235 10233 10230 10227 10225 10224 10222 10221 10219 10219 10219 10221 10223 10224 10226 10230 10235 10240 10244 10246 10248
10448 10444 10440 10436 10432 10428 10423 10419 10414 10409 10405 10401 10397 10392 10388 10384 10381 10377 10373 10370 10366 10362 10358 10353 10349 10344 10341 10338 10334 10328 10324 10320 10315 10311 10307 10302 10298 10295 10293 10290 10286 10282 10278 10274 10269 10265 10260 10254 10249 10247 10245 10242 10239 10236 10234 10231 10229 10227 10226 10225 10223 10222 10221 10222 10223 10225 10227 10229 10231 10236 10242 10248 10252 10254
10442 10437 10433 10429 10425 10421 10417 10412 10407 10403 10399 10396 10392 10387 10383 10380 10376 10372 10369 10365 10362 10358 10354 10349 10345 10341 10337 10335 10331 10326 10321 10318 10314 10310 10306 10302 10297 10293 10290 10287 10284 10281 10277 10273 10270 10266 10261 10257 10252 10248 10246 10244 10242 10239 10236 10234 10232 10230 10228 10228 10227 10225 10224 10225 10225 10227 10229 10231 10234 10238 10243 10249 10255 10260
10435 10431 10427 10422 10418 10415 10411 10406 10401 10397 10394 10391 10387 10382 10378 10374 10371 10367 10364 10361 10357 10354 10350 10346 10342 10338 10334 10332 10328 10323 10318 10315 10312 10309 10305 10300 10296 10291 10287 10284 10282 10279 10276 10272 10269 10266 10262 10258 10254 10250 10247 10244 10242 10240 10238 10236 10234 10232 10230 10230 10230 10228 10227 10227 10228 10229 10231 10234 10236 10239 10243 10249 10256 10261
10427 10424 10420 10415 10412 10408 10404 10400 10395 10391 10388 10385 10381 10377 10373 10369 10366 10363 10360 10356 10353 10350 10347 10342 10338 10334 10331 10329 10325 10321 10316 10312 10309 10307 10303 10299 10294 10290 10286 10283 10280 10277 10274 10271 10268 10265 10262 10258 10255 10251 10248 10245 10243 10241 10239 10237 10236 10234 10233 10233 10232 10232 10231 10230 10231 10232 10233 10236 10238 10241 10244 10249 10254 10260
10420 10416 10412 10408 10405 10401 10397 10393 10388 10384 10381 10378 10375 10372 10368 10364 10361 10358 10355 10352 10349 10346 10343 10339 10335 10331 10328 10325 10322 10318 10314 10310 10307 10304 10301 10297 10293 10289 10285 10282 10279 10275 10273 10270 10267 10264 10261 10258 10255 10252 10249 10246 10244 10242 10241 10239 10237 10236 10236 10235 10234 10234 10234 10234 10234 10235 10236 10237 10240 10242 10245 10248 10253 10259
10414 10409 10405 10401 10397 10394 10390 10385 10381 10377 10374 10372 10369 10366 10363 10359 10356 10354 10351 10347 10344 10342 10338 10335 10331 10328 10325 10323 10320 10316 10312 10308 10304 10301 10298 10295 10292 10288 10284 10281 10278 10274 10271 10269 10266 10263 10260 10258 10255 10252 10250 10248 10246 10243 10242 10241 10239 10238 10238 10236 10236 10236 10237 10237 10237 10237 10238 10239 10241 10244 10247 10249 10253 10258
10407 10402 10398 10393 10389 10386 10382 10378 10374 10371 10368 10365 10363 10360 10357 10354 10351 10349 10346 10343 10340 10337 10334 10331 10327 10324 10322 10319 10317 10313 10309 10305 10301 10298 10296 10292 10289 10286 10282 10279 10276 10273 10270 10268 10265 10262 10259 10257 10255 10253 10250 10248 10245 10243 10242 10241 10240 10239 10238 10238 10238 10238 10238 10239 10239 10240 10240 10241 10243 10245 10248 10251 10253 10258
10399 10394 10390 10385 10381 10378 10374 10371 10367 10364 10361 10359 10357 10355 10352 10349 10346 10344 10341 10338 10335 10333 10330 10326 10323 10321 10318 10316 10313 10310 10306 10302 10299 10296 10293 10290 10287 10283 10280 10277 10274 10271 10268 10266 10264 10261 10259 10256 10254 10252 10250 10248 10245 10243 10242 10241 10240 10240 10239 10239 10239 10239 10239 10240 10241 10242 10242 10243 10245 10247 10250 10252 10255 10258
10391 10386 10382 10378 10373 10370 10366 10363 10360 10357 10355 10353 10351 10348 10346 10343 10341 10339 10336 10333 10331 10328 10325 10322 10319 10316 10315 10313 10310 10307 10304 10300 10297 10293 10291 10288 10285 10282 10278 10275 10272 10269 10267 10265 10263 10261 10258 10256 10253 10252 10250 10248 10246 10244 10242 10241 10240 10240 10239 10239 10239 10240 10240 10241 10242 10243 10244 10245 10246 10248 10250 10253 10257 10260
10383 10379 10375 10370 10366 10361 10358 10355 10353 10351 10349 10347 10345 10342 10340 10338 10336 10334 10331 10329 10326 10323 10320 10317 10314 10312 10311 10310 10307 10304 10301 10298 10294 10291 10288 10286 10283 10280 10276 10273 10271 10268 10265 10263 10261 10259 10257 10255 10253 10251 10250 10248 10246 10245 10243 10242 10240 10240 10240 10239 10239 10240 10241 10241 10242 10243 10244 10246 10247 10249 10251 10253 10256 10260
10377 10372 10367 10363 10359 10354 10351 10348 10346 10344 10342 10340 10338 10336 10334 10332 10330 10328 10326 10324 10321 10318 10315 10313 10310 10308 10307 10305 10303 10301 10298 10295 10291 10289 10286 10284 10281 10278 10274 10271 10269 10267 10264 10262 10259 10257 10256 10254 10253 10251 10250 10248 10247 10245 10243 10242 10241 10240 10240 10240 10240 10240 10240 10241 10242 10243 10245 10246 10248 10249 10251 10253 10256 10259